Time,TemperatureF,DewpointF,PressureIn,WindDirection,WindDirectionDegrees,WindSpeedMPH,WindSpeedGustMPH,Humidity,HourlyPrecipIn,Conditions,Clouds,dailyrainin,SoftwareType,DateUTC
2013-03-06 00:07:00,46.5,41.0,30.05,North,350,0.0,3.0,82,0.00,,,0.02,weatherlink.com 1.10,2013-03-06 06:07:00,
2013-03-06 00:18:00,45.7,41.0,30.06,North,350,0.0,1.0,84,0.00,,,0.02,weatherlink.com 1.10,2013-03-06 06:18:00,
2013-03-06 00:33:00,45.1,41.0,30.06,North,350,0.0,0.0,85,0.00,,,0.02,weatherlink.com 1.10,2013-03-06 06:33:00,
2013-03-06 00:48:00,44.4,41.0,30.06,North,350,0.0,2.0,86,0.00,,,0.02,weatherlink.com 1.10,2013-03-06 06:48:00,
2013-03-06 01:07:00,44.0,40.0,30.06,North,350,0.0,2.0,87,0.00,,,0.02,weatherlink.com 1.10,2013-03-06 07:07:00,
2013-03-06 01:18:00,44.1,40.0,30.06,NNW,336,0.0,3.0,86,0.00,,,0.02,weatherlink.com 1.10,2013-03-06 07:18:00,
2013-03-06 01:33:00,44.4,40.0,30.06,NNW,327,1.0,6.0,85,0.00,,,0.02,weatherlink.com 1.10,2013-03-06 07:33:00,
2013-03-06 01:48:00,44.3,40.0,30.06,NW,317,1.0,5.0,85,0.00,,,0.02,weatherlink.com 1.10,2013-03-06 07:48:00,
2013-03-06 02:07:00,44.4,40.0,30.05,NNW,336,1.0,3.0,84,0.00,,,0.02,weatherlink.com 1.10,2013-03-06 08:07:00,
2013-03-06 02:18:00,44.8,40.0,30.05,NNW,338,1.0,4.0,83,0.00,,,0.02,weatherlink.com 1.10,2013-03-06 08:18:00,
2013-03-06 02:33:00,44.5,40.0,30.05,NNW,348,0.0,3.0,83,0.00,,,0.02,weatherlink.com 1.10,2013-03-06 08:33:00,
2013-03-06 02:48:00,44.0,39.0,30.05,NNW,347,0.0,5.0,83,0.00,,,0.02,weatherlink.com 1.10,2013-03-06 08:48:00,
2013-03-06 03:07:00,44.3,39.0,30.05,NNW,333,0.0,6.0,81,0.00,,,0.02,weatherlink.com 1.10,2013-03-06 09:07:00,
2013-03-06 03:18:00,44.2,39.0,30.06,NNW,330,3.0,5.0,81,0.00,,,0.02,weatherlink.com 1.10,2013-03-06 09:18:00,
2013-03-06 03:33:00,44.3,39.0,30.07,NNW,344,1.0,4.0,80,0.00,,,0.02,weatherlink.com 1.10,2013-03-06 09:33:00,
2013-03-06 03:49:00,43.8,38.0,30.07,North,350,1.0,4.0,79,0.00,,,0.02,weatherlink.com 1.10,2013-03-06 09:49:00,
2013-03-06 04:07:00,43.3,37.0,30.08,NW,323,1.0,3.0,79,0.00,,,0.02,weatherlink.com 1.10,2013-03-06 10:07:00,
2013-03-06 04:19:00,42.7,37.0,30.09,North,350,3.0,5.0,80,0.00,,,0.02,weatherlink.com 1.10,2013-03-06 10:19:00,
2013-03-06 04:34:00,42.2,36.0,30.10,NNW,342,0.0,3.0,80,0.00,,,0.02,weatherlink.com 1.10,2013-03-06 10:34:00,
2013-03-06 04:49:00,41.4,36.0,30.11,North,11,0.0,3.0,81,0.00,,,0.02,weatherlink.com 1.10,2013-03-06 10:49:00,
2013-03-06 05:08:00,40.8,36.0,30.11,North,11,0.0,1.0,82,0.00,,,0.02,weatherlink.com 1.10,2013-03-06 11:08:00,
2013-03-06 05:19:00,40.2,35.0,30.12,North,11,0.0,2.0,83,0.00,,,0.02,weatherlink.com 1.10,2013-03-06 11:19:00,
2013-03-06 05:34:00,39.8,35.0,30.12,North,11,0.0,2.0,84,0.00,,,0.02,weatherlink.com 1.10,2013-03-06 11:34:00,
2013-03-06 05:49:00,39.4,35.0,30.12,North,355,0.0,2.0,83,0.00,,,0.02,weatherlink.com 1.10,2013-03-06 11:49:00,
2013-03-06 06:08:00,39.2,35.0,30.13,North,355,0.0,2.0,83,0.00,,,0.02,weatherlink.com 1.10,2013-03-06 12:08:00,
2013-03-06 06:19:00,39.2,34.0,30.14,WNW,290,1.0,4.0,81,0.00,,,0.02,weatherlink.com 1.10,2013-03-06 12:19:00,
2013-03-06 06:34:00,39.6,33.0,30.14,NNW,342,3.0,5.0,78,0.00,,,0.02,weatherlink.com 1.10,2013-03-06 12:34:00,
2013-03-06 06:49:00,39.9,33.0,30.15,NNW,336,0.0,5.0,76,0.00,,,0.02,weatherlink.com 1.10,2013-03-06 12:49:00,
2013-03-06 07:08:00,40.5,33.0,30.16,NNW,346,3.0,6.0,74,0.00,,,0.02,weatherlink.com 1.10,2013-03-06 13:08:00,
2013-03-06 07:19:00,41.4,33.0,30.16,NNW,328,4.0,7.0,71,0.00,,,0.02,weatherlink.com 1.10,2013-03-06 13:19:00,
2013-03-06 07:34:00,42.2,32.0,30.16,North,355,3.0,8.0,68,0.00,,,0.02,weatherlink.com 1.10,2013-03-06 13:34:00,
2013-03-06 07:49:00,42.8,32.0,30.16,NW,318,3.0,10.0,65,0.00,,,0.02,weatherlink.com 1.10,2013-03-06 13:49:00,
2013-03-06 08:08:00,43.5,31.0,30.16,NNW,338,0.0,10.0,61,0.00,,,0.02,weatherlink.com 1.10,2013-03-06 14:08:00,
2013-03-06 08:19:00,44.5,30.0,30.16,NW,306,3.0,10.0,58,0.00,,,0.02,weatherlink.com 1.10,2013-03-06 14:19:00,
2013-03-06 08:34:00,45.1,29.0,30.16,North,5,5.0,13.0,53,0.00,,,0.02,weatherlink.com 1.10,2013-03-06 14:34:00,
2013-03-06 08:49:00,46.1,30.0,30.16,NE,41,4.0,12.0,53,0.00,,,0.02,weatherlink.com 1.10,2013-03-06 14:49:00,
2013-03-06 09:08:00,46.9,28.0,30.16,North,10,8.0,12.0,48,0.00,,,0.02,weatherlink.com 1.10,2013-03-06 15:08:00,
2013-03-06 09:19:00,47.6,29.0,30.16,North,355,4.0,10.0,48,0.00,,,0.02,weatherlink.com 1.10,2013-03-06 15:19:00,
2013-03-06 09:34:00,48.8,28.0,30.16,WNW,293,5.0,13.0,44,0.00,,,0.02,weatherlink.com 1.10,2013-03-06 15:34:00,
2013-03-06 09:49:00,49.4,30.0,30.16,NW,324,3.0,10.0,48,0.00,,,0.02,weatherlink.com 1.10,2013-03-06 15:49:00,
2013-03-06 10:08:00,50.8,31.0,30.15,NNW,333,1.0,9.0,47,0.00,,,0.02,weatherlink.com 1.10,2013-03-06 16:08:00,
2013-03-06 10:19:00,51.9,30.0,30.16,NE,42,3.0,11.0,43,0.00,,,0.02,weatherlink.com 1.10,2013-03-06 16:19:00,
2013-03-06 10:34:00,52.5,29.0,30.15,NNW,339,1.0,10.0,41,0.00,,,0.02,weatherlink.com 1.10,2013-03-06 16:34:00,
2013-03-06 10:49:00,52.8,29.0,30.15,NNW,345,5.0,12.0,40,0.00,,,0.02,weatherlink.com 1.10,2013-03-06 16:49:00,
2013-03-06 11:08:00,53.3,28.0,30.14,NNE,22,7.0,13.0,38,0.00,,,0.02,weatherlink.com 1.10,2013-03-06 17:08:00,
2013-03-06 11:19:00,54.7,29.0,30.14,WNW,295,5.0,8.0,38,0.00,,,0.02,weatherlink.com 1.10,2013-03-06 17:19:00,
2013-03-06 11:35:00,55.6,30.0,30.13,NNW,338,3.0,12.0,38,0.00,,,0.02,weatherlink.com 1.10,2013-03-06 17:35:00,
2013-03-06 11:49:00,56.8,31.0,30.13,NW,319,3.0,8.0,37,0.00,,,0.02,weatherlink.com 1.10,2013-03-06 17:49:00,
2013-03-06 12:09:00,57.0,29.0,30.12,NW,309,1.0,11.0,35,0.00,,,0.02,weatherlink.com 1.10,2013-03-06 18:09:00,
2013-03-06 12:19:00,57.6,30.0,30.11,WNW,300,5.0,8.0,35,0.00,,,0.02,weatherlink.com 1.10,2013-03-06 18:19:00,
2013-03-06 12:34:00,57.1,28.0,30.10,NW,326,3.0,14.0,33,0.00,,,0.02,weatherlink.com 1.10,2013-03-06 18:34:00,
2013-03-06 12:49:00,59.0,30.0,30.09,NNW,332,3.0,10.0,34,0.00,,,0.02,weatherlink.com 1.10,2013-03-06 18:49:00,
2013-03-06 13:09:00,58.1,29.0,30.09,NW,323,3.0,14.0,33,0.00,,,0.02,weatherlink.com 1.10,2013-03-06 19:09:00,
2013-03-06 13:20:00,58.8,29.0,30.09,NNE,30,6.0,11.0,32,0.00,,,0.02,weatherlink.com 1.10,2013-03-06 19:20:00,
2013-03-06 13:35:00,58.8,30.0,30.08,North,355,3.0,12.0,33,0.00,,,0.02,weatherlink.com 1.10,2013-03-06 19:35:00,
2013-03-06 13:50:00,59.6,30.0,30.07,WNW,302,3.0,11.0,33,0.00,,,0.02,weatherlink.com 1.10,2013-03-06 19:50:00,
2013-03-06 14:09:00,60.0,31.0,30.07,WNW,286,6.0,8.0,34,0.00,,,0.02,weatherlink.com 1.10,2013-03-06 20:09:00,
2013-03-06 14:20:00,59.8,30.0,30.07,North,355,5.0,13.0,32,0.00,,,0.02,weatherlink.com 1.10,2013-03-06 20:20:00,
2013-03-06 14:35:00,59.7,30.0,30.07,North,355,15.0,15.0,33,0.00,,,0.02,weatherlink.com 1.10,2013-03-06 20:35:00,
2013-03-06 14:50:00,59.5,30.0,30.07,NE,42,4.0,14.0,33,0.00,,,0.02,weatherlink.com 1.10,2013-03-06 20:50:00,
2013-03-06 15:08:00,59.8,30.0,30.07,WSW,255,3.0,12.0,33,0.00,,,0.02,weatherlink.com 1.10,2013-03-06 21:08:00,
2013-03-06 15:19:00,60.0,31.0,30.07,NNW,340,5.0,11.0,34,0.00,,,0.02,weatherlink.com 1.10,2013-03-06 21:19:00,
2013-03-06 15:34:00,60.4,32.0,30.07,NNE,32,5.0,8.0,35,0.00,,,0.02,weatherlink.com 1.10,2013-03-06 21:34:00,
2013-03-06 15:49:00,59.7,31.0,30.07,NNW,329,4.0,10.0,34,0.00,,,0.02,weatherlink.com 1.10,2013-03-06 21:49:00,
2013-03-06 16:09:00,59.2,31.0,30.07,NE,36,4.0,10.0,35,0.00,,,0.02,weatherlink.com 1.10,2013-03-06 22:09:00,
2013-03-06 16:20:00,57.8,31.0,30.07,NW,326,1.0,9.0,37,0.00,,,0.02,weatherlink.com 1.10,2013-03-06 22:20:00,
2013-03-06 16:35:00,56.8,32.0,30.08,North,355,4.0,8.0,39,0.00,,,0.02,weatherlink.com 1.10,2013-03-06 22:35:00,
2013-03-06 16:50:00,56.2,31.0,30.08,NE,51,5.0,13.0,39,0.00,,,0.00,weatherlink.com 1.10,2013-03-06 22:50:00,
2013-03-06 17:09:00,55.7,32.0,30.09,North,355,4.0,9.0,40,0.00,,,0.00,weatherlink.com 1.10,2013-03-06 23:09:00,
2013-03-06 17:20:00,54.9,32.0,30.09,NNW,343,3.0,10.0,42,0.00,,,0.00,weatherlink.com 1.10,2013-03-06 23:20:00,
2013-03-06 17:35:00,54.1,32.0,30.10,NNW,341,1.0,7.0,43,0.00,,,0.00,weatherlink.com 1.10,2013-03-06 23:35:00,
2013-03-06 17:50:00,53.3,32.0,30.11,NNW,333,1.0,8.0,45,0.00,,,0.00,weatherlink.com 1.10,2013-03-06 23:50:00,
2013-03-06 18:09:00,52.4,32.0,30.12,North,355,1.0,4.0,47,0.00,,,0.00,weatherlink.com 1.10,2013-03-07 00:09:00,
2013-03-06 18:20:00,51.6,33.0,30.13,North,5,0.0,2.0,50,0.00,,,0.00,weatherlink.com 1.10,2013-03-07 00:20:00,
2013-03-06 18:35:00,50.2,33.0,30.14,North,5,0.0,2.0,53,0.00,,,0.00,weatherlink.com 1.10,2013-03-07 00:35:00,
2013-03-06 18:50:00,49.5,33.0,30.14,North,355,0.0,4.0,54,0.00,,,0.00,weatherlink.com 1.10,2013-03-07 00:50:00,
2013-03-06 19:09:00,49.0,34.0,30.15,North,355,0.0,3.0,56,0.00,,,0.00,weatherlink.com 1.10,2013-03-07 01:09:00,
2013-03-06 19:20:00,48.1,33.0,30.15,North,355,0.0,2.0,57,0.00,,,0.00,weatherlink.com 1.10,2013-03-07 01:20:00,
2013-03-06 19:35:00,47.6,33.0,30.16,North,355,0.0,3.0,58,0.00,,,0.00,weatherlink.com 1.10,2013-03-07 01:35:00,
2013-03-06 19:50:00,46.7,34.0,30.16,North,355,0.0,1.0,61,0.00,,,0.00,weatherlink.com 1.10,2013-03-07 01:50:00,
2013-03-06 20:10:00,45.6,34.0,30.16,North,355,0.0,0.0,63,0.00,,,0.00,weatherlink.com 1.10,2013-03-07 02:10:00,
2013-03-06 20:21:00,44.6,33.0,30.16,North,355,0.0,2.0,65,0.00,,,0.00,weatherlink.com 1.10,2013-03-07 02:21:00,
2013-03-06 20:36:00,44.8,34.0,30.17,North,355,0.0,2.0,65,0.00,,,0.00,weatherlink.com 1.10,2013-03-07 02:36:00,
2013-03-06 20:51:00,44.6,33.0,30.17,North,355,0.0,2.0,65,0.00,,,0.00,weatherlink.com 1.10,2013-03-07 02:51:00,
2013-03-06 21:10:00,44.3,33.0,30.17,North,355,0.0,2.0,65,0.00,,,0.00,weatherlink.com 1.10,2013-03-07 03:10:00,
2013-03-06 21:21:00,43.4,34.0,30.18,North,355,0.0,0.0,69,0.00,,,0.00,weatherlink.com 1.10,2013-03-07 03:21:00,
2013-03-06 21:36:00,42.3,34.0,30.18,North,355,0.0,1.0,71,0.00,,,0.00,weatherlink.com 1.10,2013-03-07 03:36:00,
2013-03-06 21:51:00,41.7,33.0,30.18,North,355,0.0,1.0,71,0.00,,,0.00,weatherlink.com 1.10,2013-03-07 03:51:00,
2013-03-06 22:10:00,41.7,33.0,30.18,North,355,0.0,2.0,71,0.00,,,0.00,weatherlink.com 1.10,2013-03-07 04:10:00,
2013-03-06 22:21:00,41.4,33.0,30.18,North,355,0.0,1.0,72,0.00,,,0.00,weatherlink.com 1.10,2013-03-07 04:21:00,
2013-03-06 22:36:00,41.4,33.0,30.19,North,355,0.0,1.0,72,0.00,,,0.00,weatherlink.com 1.10,2013-03-07 04:36:00,
2013-03-06 22:51:00,41.6,33.0,30.19,North,355,0.0,3.0,71,0.00,,,0.00,weatherlink.com 1.10,2013-03-07 04:51:00,
2013-03-06 23:10:00,42.0,33.0,30.19,NNW,348,0.0,4.0,70,0.00,,,0.00,weatherlink.com 1.10,2013-03-07 05:10:00,
2013-03-06 23:21:00,41.7,33.0,30.19,North,355,0.0,1.0,70,0.00,,,0.00,weatherlink.com 1.10,2013-03-07 05:21:00,
2013-03-06 23:36:00,40.9,33.0,30.20,North,355,0.0,0.0,72,0.00,,,0.00,weatherlink.com 1.10,2013-03-07 05:36:00,
2013-03-06 23:51:00,39.8,32.0,30.19,North,355,0.0,0.0,75,0.00,,,0.00,weatherlink.com 1.10,2013-03-07 05:51:00,